SVA1032 OEJN-OERK

Flight info

Callsign SVA1032
Flight time 1h 7m
Altitude 39000
Route EGREP T532 ORDEM
Aircraft B77W/H-SDE1E2E3FGHIJ2J3J4J5M1RWXY/LB1D1

Departure

Time 2026-05-06 09:09
Airport King Abdulaziz International Airport (OEJN)

Arrival

Time 2026-05-06 10:16
Airport King Khalid International Airport (OERK)
Time Latitude Longitude Altitude Speed Heading
2026-05-06 08:19 21.66786 39.16984 36 ft 0 kts 66°
2026-05-06 08:58 21.66782 39.16976 36 ft 4 kts 68°
2026-05-06 08:59 21.66774 39.16950 34 ft 4 kts 81°
2026-05-06 08:59 21.66773 39.16924 34 ft 4 kts 105°
2026-05-06 08:59 21.66780 39.16906 35 ft 4 kts 145°
2026-05-06 08:59 21.66787 39.16901 33 ft 0 kts 161°
2026-05-06 09:03 21.66782 39.16903 37 ft 4 kts 161°
2026-05-06 09:03 21.66732 39.16920 34 ft 10 kts 162°
2026-05-06 09:03 21.66631 39.16956 37 ft 12 kts 161°
2026-05-06 09:04 21.66576 39.16976 37 ft 12 kts 162°
2026-05-06 09:04 21.66492 39.17005 37 ft 13 kts 163°
2026-05-06 09:04 21.66400 39.17021 37 ft 14 kts 180°
2026-05-06 09:04 21.66315 39.16985 37 ft 17 kts 226°
2026-05-06 09:05 21.66262 39.16860 37 ft 18 kts 250°
2026-05-06 09:05 21.66220 39.16736 38 ft 17 kts 250°
2026-05-06 09:05 21.66183 39.16628 38 ft 14 kts 250°
2026-05-06 09:05 21.66170 39.16592 38 ft 0 kts 250°
2026-05-06 09:07 21.66170 39.16590 38 ft 1 kts 250°
2026-05-06 09:07 21.66161 39.16565 38 ft 6 kts 250°
2026-05-06 09:07 21.66162 39.16497 37 ft 13 kts 296°
2026-05-06 09:08 21.66229 39.16446 37 ft 0 kts 337°
2026-05-06 09:08 21.66254 39.16435 37 ft 16 kts 339°
2026-05-06 09:08 21.66591 39.16301 40 ft 107 kts 340°
2026-05-06 09:09 21.67666 39.15884 161 ft 209 kts 340°
2026-05-06 09:09 21.69097 39.15328 1335 ft 224 kts 339°
2026-05-06 09:09 21.70553 39.14749 1672 ft 221 kts 339°
2026-05-06 09:09 21.71970 39.14182 1775 ft 214 kts 339°
2026-05-06 09:10 21.73378 39.13628 2440 ft 217 kts 341°
2026-05-06 09:10 21.74851 39.13050 3283 ft 240 kts 341°
2026-05-06 09:10 21.76476 39.12490 4124 ft 248 kts 352°
2026-05-06 09:10 21.78196 39.12780 4909 ft 259 kts 30°
2026-05-06 09:11 21.79572 39.14024 5784 ft 263 kts 46°
2026-05-06 09:11 21.80883 39.15436 6669 ft 276 kts 46°
2026-05-06 09:11 21.82275 39.16929 7590 ft 285 kts 47°
2026-05-06 09:11 21.83711 39.18459 8579 ft 293 kts 47°
2026-05-06 09:12 21.85166 39.19996 9592 ft 297 kts 46°
2026-05-06 09:12 21.86658 39.21556 10529 ft 303 kts 46°
2026-05-06 09:12 21.88246 39.23213 10939 ft 332 kts 46°
2026-05-06 09:12 21.89992 39.25030 11194 ft 365 kts 45°
2026-05-06 09:13 21.91894 39.27001 11447 ft 394 kts 45°
2026-05-06 09:13 21.93906 39.29076 12302 ft 403 kts 45°
2026-05-06 09:13 21.95959 39.31187 13200 ft 412 kts 45°
2026-05-06 09:13 21.98033 39.33323 14026 ft 421 kts 45°
2026-05-06 09:14 22.00179 39.35533 14841 ft 428 kts 45°
2026-05-06 09:14 22.02354 39.37774 15745 ft 433 kts 45°
2026-05-06 09:14 22.04530 39.40017 16639 ft 438 kts 45°
2026-05-06 09:14 22.06760 39.42317 17509 ft 445 kts 45°
2026-05-06 09:15 22.08994 39.44622 18328 ft 452 kts 45°
2026-05-06 09:15 22.11294 39.46998 19079 ft 458 kts 45°
2026-05-06 09:15 22.13619 39.49399 19832 ft 463 kts 44°
2026-05-06 09:15 22.15945 39.51804 20595 ft 469 kts 44°
2026-05-06 09:16 22.18323 39.54263 21356 ft 474 kts 44°
2026-05-06 09:16 22.20701 39.56722 22060 ft 480 kts 43°
2026-05-06 09:16 22.23133 39.59239 22789 ft 485 kts 43°
2026-05-06 09:16 22.25586 39.61779 23448 ft 491 kts 43°
2026-05-06 09:17 22.28039 39.64320 23958 ft 497 kts 43°
2026-05-06 09:17 22.30553 39.66927 24469 ft 503 kts 43°
2026-05-06 09:17 22.33095 39.69564 24983 ft 508 kts 43°
2026-05-06 09:17 22.35671 39.72239 25505 ft 513 kts 43°
2026-05-06 09:18 22.38228 39.74894 25993 ft 519 kts 43°
2026-05-06 09:18 22.40847 39.77616 26489 ft 524 kts 42°
2026-05-06 09:18 22.43491 39.80365 26980 ft 529 kts 43°
2026-05-06 09:18 22.46138 39.83119 27426 ft 534 kts 42°
2026-05-06 09:19 22.48860 39.85890 27850 ft 538 kts 40°
2026-05-06 09:19 22.51664 39.88596 28313 ft 541 kts 39°
2026-05-06 09:19 22.54533 39.91293 28683 ft 547 kts 39°
2026-05-06 09:19 22.57398 39.93968 29052 ft 552 kts 39°
2026-05-06 09:20 22.60319 39.96705 29437 ft 555 kts 39°
2026-05-06 09:20 22.63259 39.99482 29824 ft 559 kts 39°
2026-05-06 09:20 22.66195 40.02277 30165 ft 562 kts 39°
2026-05-06 09:20 22.69124 40.05077 30482 ft 565 kts 39°
2026-05-06 09:21 22.72041 40.07875 30884 ft 565 kts 39°
2026-05-06 09:21 22.74998 40.10714 31314 ft 564 kts 39°
2026-05-06 09:21 22.77955 40.13553 31720 ft 565 kts 39°
2026-05-06 09:21 22.80890 40.16371 32103 ft 566 kts 39°
2026-05-06 09:22 22.83810 40.19175 32493 ft 567 kts 39°
2026-05-06 09:22 22.86775 40.22021 32862 ft 567 kts 39°
2026-05-06 09:22 22.89749 40.24878 33243 ft 568 kts 39°
2026-05-06 09:22 22.92684 40.27699 33631 ft 569 kts 39°
2026-05-06 09:23 22.95664 40.30566 34005 ft 569 kts 39°
2026-05-06 09:23 22.98602 40.33394 34343 ft 570 kts 39°
2026-05-06 09:23 23.01591 40.36274 34704 ft 569 kts 39°
2026-05-06 09:23 23.04520 40.39097 35082 ft 568 kts 39°
2026-05-06 09:24 23.07491 40.41963 35478 ft 567 kts 39°
2026-05-06 09:24 23.10421 40.44791 35847 ft 566 kts 39°
2026-05-06 09:24 23.13377 40.47645 36193 ft 566 kts 39°
2026-05-06 09:24 23.16328 40.50497 36536 ft 565 kts 39°
2026-05-06 09:25 23.19236 40.53309 36884 ft 565 kts 39°
2026-05-06 09:25 23.22182 40.56160 37252 ft 564 kts 39°
2026-05-06 09:25 23.24919 40.59169 37571 ft 566 kts 48°
2026-05-06 09:25 23.27324 40.62604 37896 ft 567 kts 56°
2026-05-06 09:26 23.29357 40.66245 38228 ft 566 kts 63°
2026-05-06 09:26 23.30997 40.70134 38407 ft 567 kts 70°
2026-05-06 09:26 23.32408 40.74195 38449 ft 571 kts 71°
2026-05-06 09:27 23.35103 40.82371 38562 ft 579 kts 72°
2026-05-06 09:27 23.36484 40.86521 38670 ft 581 kts 71°
2026-05-06 09:27 23.37869 40.90610 38798 ft 582 kts 71°
2026-05-06 09:27 23.39294 40.94756 38932 ft 582 kts 71°
2026-05-06 09:28 23.40715 40.98857 38979 ft 584 kts 71°
2026-05-06 09:28 23.43598 41.07153 39048 ft 583 kts 71°
2026-05-06 09:29 23.46452 41.15407 39045 ft 582 kts 71°
2026-05-06 09:29 23.49285 41.23642 39044 ft 581 kts 71°
2026-05-06 09:30 23.52107 41.31865 39045 ft 580 kts 71°
2026-05-06 09:30 23.54934 41.40113 39044 ft 580 kts 71°
2026-05-06 09:31 23.57752 41.48350 39044 ft 580 kts 71°
2026-05-06 09:31 23.60561 41.56578 39027 ft 580 kts 71°
2026-05-06 09:32 23.63366 41.64812 39041 ft 580 kts 71°
2026-05-06 09:32 23.66176 41.73075 39041 ft 580 kts 71°
2026-05-06 09:33 23.68917 41.81359 39042 ft 580 kts 73°
2026-05-06 09:33 23.71510 41.89695 39039 ft 580 kts 73°
2026-05-06 09:34 23.74125 41.98039 39043 ft 581 kts 72°
2026-05-06 09:34 23.76865 42.06342 39040 ft 582 kts 71°
2026-05-06 09:35 23.79711 42.14547 39022 ft 582 kts 71°
2026-05-06 09:35 23.82568 42.22819 39035 ft 582 kts 71°
2026-05-06 09:36 23.85390 42.31106 39035 ft 582 kts 71°
2026-05-06 09:36 23.88199 42.39403 39037 ft 582 kts 71°
2026-05-06 09:37 23.91003 42.47696 39027 ft 582 kts 71°
2026-05-06 09:37 23.93809 42.56001 39027 ft 582 kts 71°
2026-05-06 09:38 23.96607 42.64296 39022 ft 581 kts 71°
2026-05-06 09:38 23.99396 42.72585 39026 ft 581 kts 71°
2026-05-06 09:39 24.02180 42.80879 39018 ft 580 kts 71°
2026-05-06 09:39 24.04955 42.89159 39020 ft 580 kts 71°
2026-05-06 09:40 24.07703 42.97447 39022 ft 579 kts 72°
2026-05-06 09:40 24.11789 43.09885 39026 ft 579 kts 72°
2026-05-06 09:41 24.14478 43.18080 39021 ft 578 kts 72°
2026-05-06 09:41 24.17196 43.26371 39027 ft 578 kts 72°
2026-05-06 09:42 24.19908 43.34660 39028 ft 578 kts 72°
2026-05-06 09:42 24.22611 43.42942 39031 ft 578 kts 72°
2026-05-06 09:43 24.25312 43.51232 39030 ft 578 kts 72°
2026-05-06 09:43 24.28006 43.59519 39034 ft 577 kts 72°
2026-05-06 09:44 24.30699 43.67822 39030 ft 578 kts 72°
2026-05-06 09:44 24.33385 43.76121 39024 ft 578 kts 72°
2026-05-06 09:45 24.36073 43.84443 39020 ft 578 kts 72°
2026-05-06 09:45 24.38735 43.92701 39018 ft 579 kts 72°
2026-05-06 09:46 24.41412 44.01026 39018 ft 579 kts 72°
2026-05-06 09:46 24.44083 44.09364 39025 ft 579 kts 73°
2026-05-06 09:47 24.46084 44.17887 39026 ft 576 kts 82°
2026-05-06 09:47 24.47488 44.26531 39022 ft 576 kts 83°
2026-05-06 09:48 24.48913 44.35184 39020 ft 576 kts 82°
2026-05-06 09:48 24.50404 44.43834 39024 ft 576 kts 82°
2026-05-06 09:49 24.51639 44.51009 39021 ft 576 kts 82°
2026-05-06 09:49 24.53127 44.59656 39020 ft 575 kts 82°
2026-05-06 09:50 24.54615 44.68283 39015 ft 575 kts 82°
2026-05-06 09:50 24.56098 44.76922 39011 ft 575 kts 82°
2026-05-06 09:51 24.57572 44.85547 39005 ft 574 kts 82°
2026-05-06 09:51 24.59039 44.94161 39004 ft 574 kts 82°
2026-05-06 09:52 24.60491 45.02724 38433 ft 564 kts 82°
2026-05-06 09:52 24.61202 45.06944 37766 ft 560 kts 82°
2026-05-06 09:52 24.61906 45.11139 37110 ft 557 kts 82°
2026-05-06 09:53 24.62606 45.15320 36483 ft 554 kts 82°
2026-05-06 09:53 24.63300 45.19467 35947 ft 549 kts 82°
2026-05-06 09:53 24.63986 45.23576 35440 ft 545 kts 82°
2026-05-06 09:53 24.64666 45.27653 34944 ft 541 kts 82°
2026-05-06 09:54 24.65340 45.31699 34452 ft 537 kts 82°
2026-05-06 09:54 24.66013 45.35750 33555 ft 542 kts 82°
2026-05-06 09:54 24.66690 45.39837 32699 ft 544 kts 82°
2026-05-06 09:54 24.67367 45.43926 32013 ft 542 kts 82°
2026-05-06 09:55 24.68041 45.47997 31414 ft 538 kts 82°
2026-05-06 09:55 24.68706 45.52018 30917 ft 532 kts 82°
2026-05-06 09:55 24.69363 45.55999 30498 ft 525 kts 82°
2026-05-06 09:55 24.70005 45.59896 30427 ft 509 kts 82°
2026-05-06 09:56 24.70627 45.63673 30345 ft 495 kts 82°
2026-05-06 09:56 24.71221 45.67307 30272 ft 482 kts 83°
2026-05-06 09:56 24.71599 45.70905 30163 ft 467 kts 90°
2026-05-06 09:56 24.71700 45.74421 30054 ft 454 kts 93°
2026-05-06 09:57 24.71717 45.77865 29763 ft 448 kts 94°
2026-05-06 09:57 24.71746 45.81296 29118 ft 450 kts 93°
2026-05-06 09:57 24.71821 45.84747 28484 ft 452 kts 92°
2026-05-06 09:57 24.71929 45.88206 27872 ft 454 kts 91°
2026-05-06 09:58 24.72045 45.91675 27261 ft 455 kts 91°
2026-05-06 09:58 24.72159 45.95159 26655 ft 455 kts 92°
2026-05-06 09:58 24.72268 45.98639 26075 ft 456 kts 92°
2026-05-06 09:58 24.72375 46.02125 25502 ft 456 kts 91°
2026-05-06 09:59 24.72481 46.05611 24938 ft 456 kts 91°
2026-05-06 09:59 24.72587 46.09096 24384 ft 456 kts 91°
2026-05-06 09:59 24.72692 46.12570 23840 ft 455 kts 91°
2026-05-06 09:59 24.72795 46.16016 23255 ft 454 kts 91°
2026-05-06 10:00 24.72901 46.19478 22611 ft 453 kts 91°
2026-05-06 10:00 24.73007 46.22938 21981 ft 452 kts 91°
2026-05-06 10:00 24.73111 46.26386 21359 ft 450 kts 91°
2026-05-06 10:00 24.73212 46.29836 20750 ft 448 kts 90°
2026-05-06 10:01 24.73308 46.33228 20135 ft 432 kts 90°
2026-05-06 10:01 24.73397 46.36412 19518 ft 409 kts 90°
2026-05-06 10:01 24.73577 46.39456 18895 ft 391 kts 81°
2026-05-06 10:01 24.74460 46.42209 18238 ft 376 kts 60°
2026-05-06 10:02 24.75791 46.44619 17541 ft 362 kts 58°
2026-05-06 10:02 24.76667 46.46201 17056 ft 355 kts 59°
2026-05-06 10:02 24.77043 46.46889 16850 ft 352 kts 59°
2026-05-06 10:02 24.78269 46.49177 16158 ft 342 kts 60°
2026-05-06 10:03 24.79453 46.51417 15484 ft 334 kts 60°
2026-05-06 10:03 24.80605 46.53607 14832 ft 328 kts 60°
2026-05-06 10:03 24.81735 46.55760 14182 ft 322 kts 61°
2026-05-06 10:03 24.82807 46.57961 13548 ft 328 kts 71°
2026-05-06 10:04 24.83175 46.60436 12845 ft 332 kts 96°
2026-05-06 10:04 24.82576 46.62873 12195 ft 333 kts 121°
2026-05-06 10:04 24.81152 46.64867 11530 ft 334 kts 142°
2026-05-06 10:04 24.79196 46.66250 10885 ft 335 kts 154°
2026-05-06 10:05 24.77135 46.67496 10244 ft 340 kts 153°
2026-05-06 10:05 24.75058 46.68770 9603 ft 345 kts 153°
2026-05-06 10:05 24.72958 46.70074 8886 ft 349 kts 153°
2026-05-06 10:05 24.70843 46.71398 8213 ft 352 kts 153°
2026-05-06 10:06 24.68751 46.72724 8046 ft 334 kts 153°
2026-05-06 10:06 24.66841 46.73933 7793 ft 302 kts 153°
2026-05-06 10:06 24.65091 46.75042 7425 ft 280 kts 153°
2026-05-06 10:06 24.63464 46.76056 7429 ft 269 kts 154°
2026-05-06 10:07 24.61793 46.77096 7449 ft 280 kts 153°
2026-05-06 10:07 24.60095 46.78153 7453 ft 280 kts 153°
2026-05-06 10:07 24.58411 46.79206 7431 ft 276 kts 153°
2026-05-06 10:07 24.56759 46.80242 7429 ft 273 kts 153°
2026-05-06 10:08 24.55125 46.81268 7432 ft 273 kts 151°
2026-05-06 10:08 24.53758 46.82759 7337 ft 282 kts 123°
2026-05-06 10:08 24.53187 46.84840 7062 ft 293 kts 98°
2026-05-06 10:08 24.53434 46.87075 6786 ft 297 kts 75°
2026-05-06 10:09 24.54444 46.89045 6516 ft 299 kts 49°
2026-05-06 10:09 24.56083 46.90372 6462 ft 293 kts 25°
2026-05-06 10:09 24.58069 46.90920 6401 ft 298 kts
2026-05-06 10:09 24.60152 46.90682 6368 ft 306 kts 339°
2026-05-06 10:10 24.62094 46.89745 6314 ft 303 kts 328°
2026-05-06 10:10 24.63894 46.88611 6239 ft 302 kts 326°
2026-05-06 10:10 24.65694 46.87433 6198 ft 300 kts 326°
2026-05-06 10:10 24.67483 46.86278 6141 ft 297 kts 327°
2026-05-06 10:11 24.69264 46.85144 6117 ft 293 kts 327°
2026-05-06 10:11 24.71011 46.84040 5949 ft 286 kts 328°
2026-05-06 10:11 24.72710 46.82959 5789 ft 278 kts 328°
2026-05-06 10:11 24.74351 46.81924 5684 ft 266 kts 328°
2026-05-06 10:12 24.75933 46.80917 5497 ft 260 kts 328°
2026-05-06 10:12 24.77472 46.79948 5355 ft 251 kts 328°
2026-05-06 10:12 24.78961 46.79003 5191 ft 243 kts 328°
2026-05-06 10:12 24.80399 46.78098 5002 ft 236 kts 328°
2026-05-06 10:13 24.81796 46.77202 4748 ft 229 kts 329°
2026-05-06 10:13 24.83126 46.76359 4435 ft 210 kts 330°
2026-05-06 10:13 24.84336 46.75595 4200 ft 191 kts 330°
2026-05-06 10:13 24.85468 46.74876 3942 ft 183 kts 330°
2026-05-06 10:14 24.86543 46.74195 3719 ft 171 kts 332°
2026-05-06 10:14 24.87515 46.73574 3513 ft 153 kts 332°
2026-05-06 10:14 24.88433 46.72993 3378 ft 154 kts 333°
2026-05-06 10:14 24.89361 46.72401 3206 ft 153 kts 334°
2026-05-06 10:15 24.90277 46.71823 2967 ft 148 kts 334°
2026-05-06 10:15 24.91136 46.71242 2796 ft 143 kts 333°
2026-05-06 10:15 24.91907 46.70726 2603 ft 142 kts 335°
2026-05-06 10:15 24.92768 46.70203 2368 ft 141 kts 336°
2026-05-06 10:16 24.93635 46.69668 2138 ft 144 kts 333°
2026-05-06 10:16 24.94502 46.69129 2041 ft 137 kts 332°
2026-05-06 10:16 24.95216 46.68678 2041 ft 96 kts 331°
2026-05-06 10:16 24.95662 46.68400 2041 ft 42 kts 333°
2026-05-06 10:17 24.95911 46.68349 2038 ft 33 kts 10°
2026-05-06 10:17 24.96008 46.68411 2040 ft 0 kts 49°
2026-05-06 10:17 24.96011 46.68415 2041 ft 1 kts 49°
2026-05-06 10:17 24.96016 46.68422 2040 ft 2 kts 53°
2026-05-06 10:18 24.96023 46.68434 2041 ft 2 kts 56°
2026-05-06 10:18 24.96027 46.68441 2041 ft 2 kts 56°
2026-05-06 10:18 24.96050 46.68483 2042 ft 13 kts 59°
2026-05-06 10:18 24.96105 46.68588 2043 ft 16 kts 60°
2026-05-06 10:19 24.96162 46.68696 2043 ft 16 kts 60°
2026-05-06 10:19 24.96219 46.68805 2043 ft 16 kts 60°
2026-05-06 10:19 24.96269 46.68899 2042 ft 16 kts 60°
2026-05-06 10:19 24.96328 46.69013 2041 ft 16 kts 60°
2026-05-06 10:20 24.96386 46.69122 2042 ft 17 kts 60°
2026-05-06 10:20 24.96451 46.69247 2040 ft 21 kts 60°
2026-05-06 10:20 24.96528 46.69391 2041 ft 21 kts 59°
2026-05-06 10:20 24.96603 46.69534 2043 ft 22 kts 59°
2026-05-06 10:21 24.96678 46.69677 2043 ft 22 kts 60°
2026-05-06 10:21 24.96753 46.69819 2041 ft 22 kts 60°
2026-05-06 10:21 24.96828 46.69962 2040 ft 20 kts 59°
2026-05-06 10:21 24.96815 46.70089 2041 ft 20 kts 145°
2026-05-06 10:22 24.96698 46.70166 2043 ft 20 kts 149°
2026-05-06 10:22 24.96579 46.70241 2044 ft 20 kts 150°
2026-05-06 10:22 24.96461 46.70316 2042 ft 20 kts 150°
2026-05-06 10:22 24.96342 46.70391 2042 ft 20 kts 150°
2026-05-06 10:23 24.96223 46.70466 2040 ft 20 kts 150°
2026-05-06 10:23 24.96104 46.70541 2044 ft 20 kts 150°
2026-05-06 10:23 24.95986 46.70616 2042 ft 20 kts 150°
2026-05-06 10:23 24.95858 46.70697 2039 ft 20 kts 150°
2026-05-06 10:24 24.95751 46.70759 2044 ft 10 kts 172°
2026-05-06 10:24 24.95701 46.70714 2040 ft 7 kts 238°
2026-05-06 10:24 24.95690 46.70695 2045 ft 2 kts 239°
2026-05-06 10:24 24.95687 46.70690 2045 ft 0 kts 239°